Location: C.E.K. Mees Observatory
(42.7003°N, 77.4088°W)
Time: 16:31:38
(UTC-04:00)

OTV 5 (USA 277) - Pass Details

Date: 12 October 2017
Orbit: 404 x 417 km, 43.0° (Epoch: 07 September)

Event Time Altitude Azimuth Distance (km) Brightness Sun altitude
Rises 19:37:30 0° 246° (WSW) 2,347 ? -12.9°
Reaches altitude 10° 19:39:37 10° 242° (WSW) 1,486 ? -13.3°
Maximum altitude 19:42:56 58° 163° (SSE) 487 ? -13.9°
Enters shadow 19:44:25 29° 94° (E) 794 ? -14.1°
